Location: Peach Mountain Observatory
(42.3967°N, 83.9367°W)
Time: 17:52:52
(UTC-05:00)

Vanguard 2 - Visible Passes

Search period start: 24 January 2020 00:00
Search period end: 03 February 2020 00:00
Orbit: 553 x 2938 km, 32.9° (Epoch: 24 January)

Date Brightness Start Highest point End Pass type
(mag) Time Alt. Az. Time Alt. Az. Time Alt. Az.
28 Jan 12.4 07:09:17 10° SSE 07:16:32 14° SE 07:23:06 10° ESE visible
29 Jan 12.2 07:23:29 10° S 07:34:13 20° SE 07:43:27 10° ESE visible
31 Jan 12.3 05:53:51 10° SSE 05:59:24 12° SE 06:04:44 10° ESE visible
01 Feb 12.1 06:06:55 10° S 06:16:55 18° SE 06:26:18 10° ESE visible
02 Feb 12.0 06:22:00 10° S 06:34:27 24° SE 06:45:55 10° E visible
